User: anonymous   Login
Location: Cronhütte
(48.9135°N, 9.6869°E)
Time: 10:17:08
(UTC+00:00)
Language:

Cosmos 1733 Rocket - Orbit

View from above orbital plane
View from above orbital plane
View from above satellite
View from above satellite

Ground track
Ground track

The orbit data is extracted from the following two-line orbital elements,

1 16612U 86018B   24197.88566867  .00000794  00000-0  89082-4 0  9997
2 16612  82.5155  29.4251 0015750 254.0937 105.8544 14.85497770953955
Epoch (UTC): 15 July 2024 21:15:21
Eccentricity: 0.0015750
inclination: 82.5155°
perigee height: 601 km
apogee height: 623 km
right ascension of ascending node: 29.4251°
argument of perigee: 254.0937°
revolutions per day: 14.85497770
mean anomaly at epoch: 105.8544°
orbit number at epoch: 95395

The dashed part of the orbit path shows where the satellite is in the earth's shadow,  

DLR